#timestamp,LO_Frequency,Hit,StdDev 
1645138815.1,286047004.9,N
1645138816.0,286047004.9,N
1645138835.8,286047002.0,N
1645138855.7,286046997.5,N
1645138875.5,286046999.5,N
1645138895.3,286046996.9,N
1645138915.2,286047000.4,N
1645138935.0,286047000.3,N
1645138935.9,286047000.3,N
1645138955.8,286046997.3,N
1645138975.6,286047003.7,N
1645138995.4,286047002.5,N
1645139015.3,286046996.9,N
1645139035.1,286047001.0,N
1645139055.8,286047002.6,N
1645139075.7,286047005.4,N
1645139095.5,286047009.1,N
1645139115.4,286047012.3,Y
1645139135.2,286047008.4,P
1645139155.0,286047006.6,N
1645139155.9,286047006.6,N
1645139175.8,286047007.4,N
1645139195.6,286047006.8,N
1645139215.4,286047008.3,Y
1645139235.3,286047000.3,P
1645139255.1,286046997.8,N
1645139275.9,286046994.4,N
1645139295.7,286046986.8,Y
1645139315.5,286046984.8,P
1645139335.4,286046983.9,N
1645139355.2,286046980.9,N
1645139375.0,286046986.3,N
1645139375.9,286046986.3,N
1645139395.8,286046989.3,N
1645139415.6,286046990.3,N
1645139435.5,286046995.0,N
1645139455.3,286046996.7,N
1645139475.1,286046994.2,N
1645139495.9,286046990.4,N
1645139515.7,286046991.6,N
1645139535.5,286046988.7,N
1645139555.4,286046989.8,N
1645139575.2,286046991.1,N
1645139595.1,286046984.3,Y
1645139596.0,286046984.3,P
1645139615.8,286047000.7,N
1645139635.6,286046998.2,N
1645139655.5,286047000.5,N
1645139675.3,286047000.0,N
1645139695.1,286047005.7,N
1645139715.9,286047006.4,N
1645139735.7,286047004.4,N
1645139755.6,286047001.9,N
1645139775.4,286046998.2,N
1645139795.2,286047001.1,N
1645139815.1,286047000.6,N
1645139816.0,286047000.6,N
1645139835.8,286047003.9,N
1645139855.6,286047003.0,N
1645139875.5,286047006.4,N
1645139895.3,286047006.5,N
1645139915.2,286047008.2,N
1645139935.9,286047008.6,N
1645139955.7,286047010.5,N
1645139975.6,286047006.1,N
1645139995.4,286047012.2,N
1645140015.2,286047008.3,N
1645140035.1,286047004.7,N
1645140036.0,286047004.7,N
1645140055.8,286047004.8,N
1645140075.7,286047005.7,N
1645140095.5,286047007.4,N
1645140115.3,286047001.1,N
1645140135.2,286047002.0,N
1645140155.0,286046997.7,N
1645140155.9,286046997.7,N
1645140175.7,286047002.4,N
1645140195.6,286046996.5,N
1645140215.4,286046995.4,N
1645140235.3,286046997.6,N
1645140255.1,286046997.1,N
1645140256.0,286046997.1,N
1645140275.8,286047004.6,N
1645140295.7,286047008.9,N
1645140315.5,286047001.3,N
1645140335.3,286046999.4,N
1645140355.2,286047002.2,N
1645140375.0,286047002.9,N
1645140375.9,286047002.9,N
1645140395.8,286047006.0,N
1645140415.6,286047007.0,N
1645140435.4,286047003.2,N
1645140455.3,286047008.5,N
1645140475.1,286047000.2,N
1645140495.9,286046999.1,N
1645140515.7,286046998.4,N
1645140535.5,286046999.1,N
1645140555.4,286046995.1,N
1645140575.2,286046993.7,N
1645140595.0,286046995.3,N
1645140595.9,286046995.3,N
1645140615.8,286047000.9,N
1645140635.6,286047000.2,N
1645140655.5,286046998.2,N
1645140675.3,286046998.3,N
1645140695.1,286046993.7,N
1645140715.9,286046990.9,N
1645140735.7,286046994.8,N
1645140755.5,286046996.7,N
1645140775.4,286047002.3,N
1645140795.2,286047005.2,N
1645140815.1,286047007.2,N
1645140816.0,286047007.2,N
1645140835.8,286047003.0,N
1645140855.6,286047004.6,N
1645140875.5,286047004.7,N
1645140895.3,286047004.6,N
1645140915.1,286047002.1,N
1645140935.9,286047003.6,N
1645140955.7,286047010.5,N
1645140975.6,286047009.2,N
1645140995.4,286047001.4,N
1645141015.2,286047002.5,N
1645141035.1,286047001.4,N
1645141036.0,286047001.4,N
1645141055.8,286046998.2,N
1645141075.6,286046994.4,N
1645141095.5,286046999.6,N
1645141115.3,286046998.4,N
1645141135.2,286046993.6,N
1645141155.9,286046996.1,N
1645141175.7,286046990.7,N
1645141195.6,286046987.2,N
1645141215.4,286046987.0,N
1645141235.2,286046987.2,N
1645141255.1,286046982.2,N
1645141256.0,286046982.2,N
1645141275.8,286046991.5,N
1645141295.7,286046992.8,N
1645141315.5,286046999.1,N
1645141335.3,286047004.4,N
1645141355.2,286047007.0,N
1645141375.0,286047007.5,N
1645141375.9,286047007.5,N
1645141395.7,286047007.3,N
1645141415.6,286047008.5,N
1645141435.4,286047009.8,N
1645141455.3,286047006.0,N
1645141475.1,286047006.4,N
1645141476.0,286047006.4,N
1645141495.8,286047008.4,N
1645141515.7,286047003.2,N
1645141535.5,286047004.8,N
1645141555.3,286047005.8,N
1645141575.2,286047002.4,N
1645141595.0,286047001.2,N
1645141595.9,286047001.2,N
1645141615.8,286047000.3,N
1645141635.6,286047001.9,N
1645141655.4,286047005.1,N
1645141675.3,286047005.5,N
1645141695.1,286047001.9,N
1645141715.8,286047002.1,N
1645141735.7,286046998.1,N
1645141755.5,286047001.7,N
1645141775.4,286047005.5,N
1645141795.2,286047010.3,N
1645141815.0,286047007.2,N
1645141815.9,286047007.2,N
1645141835.8,286047006.6,N
1645141855.6,286046999.7,N
1645141875.4,286046994.7,N
1645141895.3,286046997.2,N
1645141915.1,286046995.8,N
1645141935.9,286046997.3,N
1645141955.7,286047000.5,N
1645141975.5,286046999.9,N
1645141995.4,286047002.4,N
1645142015.2,286047000.6,N
1645142035.0,286046996.5,N
1645142036.0,286046996.5,N
1645142055.8,286046998.7,N
1645142075.6,286047002.6,N
1645142095.5,286046995.8,N
1645142115.3,286046997.9,N
1645142135.1,286046995.7,N
1645142155.9,286046994.4,N
1645142175.7,286046991.8,N
1645142195.5,286046992.8,N
1645142215.4,286046995.5,N
1645142235.2,286046999.2,N
1645142255.1,286046993.4,N
1645142256.0,286046993.4,N
1645142275.8,286046992.1,N
1645142295.6,286046990.0,N
1645142315.5,286046989.2,N
1645142335.3,286046994.6,N
1645142355.1,286047001.1,N
1645142375.9,286047002.2,N
1645142395.7,286047004.2,N
